Regional Weather Roundup
Issued by NWS

Home | Current Version | Previous Version | Graphics & Text | Print | Product List | Glossary On
Versions: 1 2 3 4 5 6 7 8 9 10 11 12 13 14 15 16 17 18 19 20 21 22 23 24 25 26 27
000
ASUS45 KSLC 170710
RWRUT

UTAH REGIONAL WEATHER ROUNDUP
NATIONAL WEATHER SERVICE SALT LAKE CITY UT
100 AM MDT TUE OCT 17 2017

UTZ001>011-023>025-170800-

NORTHERN UTAH

CITY           SKY/WX    TMP DP  RH WIND       PRES   REMARKS
BRIGHAM CITY   CLEAR     38  27  65 NW5       30.33F WCI  34
HILL AFB       CLEAR     44  14  29 E12       30.33R
LOGAN          CLEAR     34  23  64 W5        30.33F WCI  30
OGDEN          CLEAR     41  20  43 S5        30.32S
SALT LAKE CITY CLEAR     45  34  65 NW3       30.32S
TOOELE VALLEY  PTCLDY    36  23  60 CALM      30.34R
WENDOVER       PTCLDY    39  19  44 CALM      30.33S
WEST JORDAN    CLEAR     42  25  50 NW5       30.33S

$$

UTZ011>015-024>027-170800-

CENTRAL/NORTHEAST UTAH

CITY           SKY/WX    TMP DP  RH WIND       PRES   REMARKS
PROVO AIRPORT  CLEAR     38  27  64 CALM      30.34S
MOAB/CANYONLAN MOCLDY    38  10  31 CALM      30.33S
DELTA          MOCLDY    41  21  45 CALM      30.33R
PRICE          PTCLDY    37   5  26 NE3       30.37S
ROOSEVELT      CLOUDY    32  23  69 W3        30.37S
VERNAL         CLOUDY    37  18  46 CALM      30.36R

$$

UTZ013>016-019>022-027-170800-

SOUTHERN UTAH

CITY           SKY/WX    TMP DP  RH WIND       PRES   REMARKS
BRYCE CANYON   MOCLDY    31   1  28 W10       30.48R WCI  22
CEDAR CITY     PTCLDY    45   3  17 S3        30.34S
MILFORD        MOCLDY    36  11  35 SW8       30.34R WCI  30
ST GEORGE      SUNNY     54   9  16 S6        30.23R
HANKSVILLE     MOCLDY    36  10  35 CALM      30.36S
BLANDING         N/A     41  10  27 N9        30.43S

$$

REGIONAL REPORTS     COLORADO/ARIZONA

CITY           SKY/WX    TMP DP  RH WIND       PRES   REMARKS
CRAIG, CO      CLOUDY    25  16  68 CALM      30.40S
GRAND JUNCTION CLOUDY    34  12  40 CALM      30.36R
RIFLE, CO      CLOUDY    35  13  40 CALM      30.41R
MONTROSE, CO   CLOUDY    36  18  48 S9        30.42S WCI  29
CORTEZ, CO     CLOUDY    31  16  54 E6        30.39S WCI  25
COLORADO CITY    N/A     37   9  30 SE5       30.34S WCI  34
PAGE, AZ       PTCLDY    50  17  27 CALM      30.30S
GRAND CANYON   PTCLDY    35   6  29 E3        30.41F HAZE
KINGMAN, AZ    CLEAR     57  16  20 SE5       30.21S
FLAGSTAFF, AZ  CLEAR     37  17  44 CALM      30.43S

$$

REGIONAL REPORTS    NEVADA/IDAHO/WYOMING

CITY           SKY/WX    TMP DP  RH WIND       PRES   REMARKS
LAS VEGAS, NV  PTCLDY    64  12  13 SW5       30.15R
ELY, NY        MOCLDY    35   0  22 S13       30.38S WCI  26
ELKO, NV       MOCLDY    36  16  44 E5        30.31S WCI  32
POCATELLO, ID  CLOUDY    35  27  72 N3        30.31S
BURLEY, ID     CLEAR     35  29  78 S3        30.27F
FORT BRIDGER,    N/A     46   2  16 W12       30.42S
EVANSTON, WY   CLOUDY    42   6  22 S7        30.41S
ROCK SPRINGS,  CLOUDY    44   4  19 W15       30.37F
KEMMERER, WY   CLOUDY    36   9  32 N8        30.41S WCI  29

$$




USA.gov is the U.S. government's official web portal to all federal, state and local government web resources and services.